Location: ??
(34.7252°N, 135.5457°E)
Time: 09:35:54
(UTC+00:00)

BREEZE M DEB (TANK) - Pass Details

Date: 24 September 2020
Orbit: 299 x 11872 km, 49.5° (Epoch: 23 October)

Event Time Altitude Azimuth Distance (km) Brightness Sun altitude
Rises 20:07:23 0° 307° (NW) 6,038 7.2 -9.2°
Reaches altitude 10° 20:13:12 10° 300° (WNW) 3,567 5.9 -8.0°
Maximum altitude 20:19:22 29° 242° (WSW) 1,204 3.6 -6.7°
Drops below altitude 10° 20:22:09 10° 178° (S) 1,544 4.6 -6.1°
Sets 20:23:41 0° 164° (SSE) 2,167 5.6 -5.8°
